Temp
-24 -25 -26 -26 -27 -27 -26 -26 -26 -26 -24 -25 -24 -23 -21 -20 -19 -19 -19 -18 -17 -16 -17 -17 -17 -15 -15 -15 -15 -15 -15 -14 -14 -14 -13 -13 -13 -13 -12 -12 -12 -12 -12 -12
-23 -25 -26 -27 -27 -27 -27 -27 -26 -27 -26 -25 -26 -23 -23 -22 -21 -20 -20 -19 -18 -17 -16 -17 -17 -16 -16 -16 -16 -15 -15 -15 -15 -14 -14 -13 -13 -13 -13 -13 -14 -13 -13 -12
-25 -27 -27 -28 -28 -28 -28 -27 -26 -27 -27 -27 -26 -25 -24 -23 -21 -21 -21 -21 -19 -19 -18 -17 -17 -17 -16 -16 -16 -16 -16 -15 -15 -14 -14 -14 -14 -14 -14 -14 -14 -14 -13 -13
-26 -27 -28 -28 -29 -29 -28 -28 -28 -27 -27 -27 -27 -25 -25 -24 -23 -22 -21 -21 -21 -19 -19 -18 -17 -16 -17 -17 -17 -17 -17 -16 -15 -15 -15 -15 -15 -15 -14 -14 -14 -14 -13 -13
-26 -27 -28 -29 -29 -29 -29 -29 -29 -28 -27 -27 -27 -26 -25 -24 -23 -23 -23 -22 -21 -21 -20 -19 -17 -18 -18 -18 -18 -18 -17 -16 -16 -15 -16 -16 -15 -15 -14 -14 -14 -13 -13 -13
-27 -27 -28 -28 -29 -30 -30 -30 -30 -29 -28 -27 -27 -26 -26 -25 -24 -24 -23 -23 -22 -21 -20 -19 -19 -18 -18 -18 -18 -17 -18 -18 -17 -16 -16 -16 -15 -13 -14 -14 -14 -15 -14 -14
-26 -27 -28 -29 -30 -31 -31 -31 -31 -30 -29 -28 -28 -27 -27 -26 -25 -24 -24 -23 -23 -22 -21 -20 -19 -19 -18 -18 -18 -18 -18 -18 -18 -17 -17 -17 -14 -15 -14 -14 -14 -15 -15 -15
-27 -28 -29 -30 -31 -31 -31 -32 -31 -31 -30 -29 -28 -28 -28 -27 -26 -25 -24 -23 -23 -22 -22 -21 -20 -20 -19 -19 -19 -19 -18 -18 -18 -18 -17 -16 -14 -14 -14 -14 -14 -16 -16 -16
-29 -30 -30 -30 -31 -31 -31 -32 -32 -32 -32 -30 -29 -28 -28 -27 -27 -26 -25 -24 -23 -22 -22 -21 -21 -21 -20 -20 -20 -19 -19 -18 -18 -18 -17 -16 -14 -16 -16 -16 -14 -16 -17 -17
-30 -30 -30 -31 -31 -31 -31 -32 -32 -32 -31 -30 -31 -29 -28 -28 -28 -27 -26 -25 -24 -23 -22 -22 -22 -21 -21 -20 -20 -19 -19 -20 -19 -19 -18 -16 -15 -15 -15 -15 -14 -17 -17 -17
-31 -31 -31 -31 -31 -31 -31 -31 -32 -32 -32 -31 -31 -31 -29 -29 -28 -27 -27 -27 -25 -24 -23 -22 -22 -21 -21 -21 -20 -19 -19 -20 -20 -20 -19 -17 -16 -17 -17 -17 -18 -17 -17 -18
-31 -31 -31 -31 -31 -31 -31 -31 -32 -32 -32 -31 -31 -31 -30 -29 -29 -28 -28 -27 -27 -26 -25 -23 -23 -22 -22 -21 -21 -20 -20 -19 -20 -20 -18 -18 -17 -18 -18 -18 -17 -18 -18 -18
-32 -32 -32 -32 -31 -31 -31 -31 -32 -32 -32 -31 -30 -31 -31 -29 -29 -29 -27 -28 -27 -27 -25 -23 -24 -23 -22 -22 -21 -22 -21 -21 -20 -20 -18 -18 -18 -18 -18 -18 -18 -19 -19 -18
-33 -33 -32 -32 -32 -31 -31 -31 -31 -32 -32 -31 -31 -31 -31 -31 -30 -29 -28 -27 -28 -28 -28 -26 -24 -23 -23 -22 -22 -22 -22 -21 -20 -19 -18 -18 -18 -18 -19 -18 -18 -19 -19 -19
-32 -32 -32 -32 -32 -32 -31 -30 -31 -31 -32 -31 -31 -31 -31 -31 -30 -30 -29 -28 -28 -28 -28 -28 -25 -24 -23 -22 -22 -21 -21 -20 -20 -18 -19 -19 -19 -19 -19 -19 -19 -20 -20 -19
-31 -31 -31 -31 -32 -32 -31 -31 -31 -32 -32 -31 -30 -31 -31 -31 -31 -30 -30 -29 -28 -28 -28 -27 -27 -24 -24 -23 -22 -22 -22 -21 -20 -19 -20 -19 -19 -20 -20 -19 -19 -19 -19 -19
-30 -31 -31 -32 -32 -32 -32 -32 -32 -32 -32 -31 -30 -30 -30 -30 -30 -30 -29 -30 -29 -28 -28 -27 -27 -25 -25 -25 -23 -23 -21 -21 -20 -20 -20 -20 -20 -20 -20 -20 -20 -19 -19 -19
-30 -30 -30 -31 -31 -32 -32 -32 -32 -32 -31 -31 -31 -30 -30 -30 -30 -30 -29 -29 -29 -29 -28 -27 -27 -26 -25 -25 -23 -22 -21 -20 -20 -20 -20 -20 -20 -21 -20 -20 -20 -20 -20 -20
-29 -29 -29 -30 -30 -31 -32 -32 -32 -31 -31 -31 -30 -31 -30 -29 -29 -29 -28 -28 -28 -28 -28 -28 -27 -27 -26 -24 -23 -23 -21 -21 -21 -21 -21 -20 -20 -21 -20 -21 -21 -21 -21 -21
-29 -29 -29 -29 -29 -30 -30 -31 -31 -31 -31 -30 -30 -30 -30 -30 -29 -28 -28 -27 -27 -28 -27 -27 -26 -27 -25 -23 -23 -22 -22 -21 -21 -21 -21 -21 -20 -21 -21 -21 -21 -21 -21 -21
-28 -28 -28 -29 -29 -29 -30 -30 -30 -30 -30 -30 -30 -30 -30 -29 -29 -28 -27 -27 -27 -27 -27 -26 -26 -25 -23 -24 -24 -22 -22 -21 -21 -21 -21 -21 -21 -21 -21 -21 -21 -22 -21 -21
-29 -29 -29 -29 -29 -29 -29 -30 -30 -30 -29 -29 -28 -29 -29 -28 -28 -28 -27 -27 -27 -27 -26 -26 -25 -24 -23 -23 -24 -23 -22 -22 -22 -22 -21 -22 -22 -21 -21 -22 -22 -22 -22 -22
-29 -29 -28 -28 -29 -29 -29 -29 -29 -29 -29 -29 -29 -28 -28 -28 -28 -28 -27 -27 -27 -26 -26 -25 -25 -24 -23 -23 -23 -23 -23 -23 -23 -22 -22 -22 -22 -22 -22 -22 -22 -22 -22 -22
-29 -29 -29 -29 -29 -29 -29 -29 -28 -28 -28 -28 -28 -28 -28 -28 -28 -28 -27 -27 -26 -26 -26 -25 -25 -24 -23 -23 -23 -23 -23 -23 -23 -22 -22 -22 -22 -22 -22 -22 -23 -23 -23 -23
-30 -29 -29 -29 -29 -29 -29 -29 -29 -28 -28 -28 -28 -28 -28 -28 -28 -28 -27 -27 -27 -26 -26 -26 -25 -25 -24 -23 -24 -24 -24 -24 -24 -24 -24 -24 -24 -24 -24 -25 -25 -25 -25 -25
-30 -30 -30 -29 -29 -29 -29 -29 -29 -28 -28 -28 -28 -28 -28 -28 -28 -28 -28 -27 -27 -27 -27 -27 -27 -27 -27 -27 -26 -27 -27 -26 -26 -26 -26 -26 -26 -26 -26 -26 -26 -26 -26 -26
-30 -30 -30 -30 -30 -30 -29 -29 -29 -29 -29 -29 -30 -30 -30 -30 -30 -29 -29 -29 -29 -29 -29 -29 -29 -29 -29 -29 -29 -29 -29 -29 -28 -28 -28 -28 -28 -28 -27 -27 -27 -27 -27 -27
Height
5551 5540 5534 5529 5525 5523 5522 5522 5525 5529 5527 5531 5536 5543 5559 5576 5583 5590 5588 5595 5606 5611 5620 5626 5632 5641 5647 5653 5658 5662 5665 5663 5662 5670 5673 5675 5675 5678 5682 5683 5684 5679 5677 5675
5535 5525 5518 5513 5510 5506 5507 5508 5511 5517 5516 5517 5524 5533 5537 5545 5557 5567 5573 5577 5586 5594 5595 5605 5614 5623 5631 5636 5641 5643 5649 5649 5651 5652 5655 5659 5664 5670 5674 5673 5669 5662 5668 5667
5519 5512 5506 5501 5497 5493 5492 5491 5495 5505 5504 5507 5509 5508 5514 5522 5532 5543 5555 5563 5568 5574 5580 5588 5595 5606 5612 5618 5625 5629 5631 5634 5636 5639 5645 5649 5651 5655 5658 5657 5650 5659 5653 5664
5508 5500 5495 5491 5487 5482 5478 5481 5480 5484 5494 5497 5496 5499 5501 5510 5517 5525 5533 5546 5552 5561 5563 5572 5577 5588 5597 5600 5607 5611 5614 5619 5623 5626 5629 5631 5635 5638 5642 5640 5645 5640 5651 5649
5496 5490 5485 5480 5477 5472 5467 5467 5467 5470 5480 5485 5487 5487 5488 5496 5499 5506 5519 5523 5531 5539 5543 5553 5567 5572 5578 5583 5588 5593 5599 5603 5607 5610 5613 5614 5616 5621 5625 5628 5632 5634 5636 5636
5486 5481 5476 5471 5467 5462 5457 5459 5456 5455 5468 5472 5476 5479 5479 5479 5483 5488 5500 5505 5512 5524 5536 5540 5548 5554 5557 5564 5569 5576 5582 5589 5592 5593 5598 5598 5599 5608 5613 5617 5621 5625 5621 5631
5477 5471 5466 5462 5458 5454 5448 5450 5447 5444 5451 5455 5462 5466 5470 5472 5472 5476 5484 5492 5501 5511 5520 5527 5536 5539 5542 5548 5556 5563 5567 5575 5576 5579 5582 5579 5592 5596 5600 5601 5607 5609 5609 5611
5464 5458 5455 5452 5449 5446 5441 5440 5438 5435 5438 5442 5451 5453 5456 5459 5460 5465 5475 5484 5489 5499 5509 5515 5520 5524 5528 5533 5541 5551 5557 5560 5561 5562 5565 5569 5579 5585 5588 5589 5594 5593 5593 5592
5451 5447 5443 5441 5439 5437 5434 5433 5431 5428 5427 5436 5434 5438 5444 5448 5449 5453 5463 5474 5478 5487 5497 5502 5503 5507 5519 5520 5527 5536 5543 5548 5549 5549 5550 5551 5570 5574 5575 5577 5568 5583 5577 5577
5435 5433 5432 5430 5428 5427 5426 5425 5423 5421 5415 5425 5423 5428 5430 5434 5438 5440 5450 5455 5463 5469 5478 5484 5490 5495 5505 5507 5515 5525 5530 5532 5533 5540 5538 5542 5554 5555 5557 5559 5570 5564 5560 5563
5423 5422 5422 5421 5420 5419 5418 5417 5415 5414 5410 5416 5416 5418 5421 5423 5428 5432 5440 5439 5450 5463 5469 5475 5480 5487 5491 5494 5500 5509 5515 5520 5523 5528 5529 5534 5542 5541 5544 5549 5545 5545 5548 5549
5411 5411 5411 5411 5411 5411 5410 5410 5409 5408 5405 5408 5411 5414 5414 5410 5413 5417 5423 5425 5436 5441 5450 5464 5466 5473 5476 5481 5485 5494 5498 5510 5513 5515 5521 5530 5528 5528 5530 5529 5531 5533 5535 5536
5404 5402 5402 5403 5403 5404 5404 5403 5402 5402 5400 5399 5404 5406 5400 5402 5404 5404 5411 5421 5430 5432 5438 5445 5450 5451 5458 5467 5473 5481 5487 5493 5494 5499 5512 5517 5518 5517 5517 5517 5519 5521 5523 5524
5400 5396 5395 5395 5397 5399 5397 5397 5398 5397 5395 5393 5399 5393 5394 5395 5395 5397 5402 5413 5411 5419 5422 5425 5434 5443 5450 5456 5461 5464 5472 5476 5486 5489 5498 5502 5504 5504 5505 5506 5508 5510 5511 5513
5404 5394 5390 5388 5388 5389 5390 5392 5393 5390 5391 5389 5388 5389 5389 5388 5388 5390 5393 5399 5404 5407 5410 5414 5422 5434 5438 5446 5446 5459 5462 5468 5470 5482 5484 5484 5489 5492 5495 5497 5498 5498 5500 5502
5410 5401 5392 5388 5386 5384 5385 5386 5387 5384 5383 5385 5384 5384 5382 5383 5386 5387 5387 5391 5393 5396 5399 5404 5409 5425 5426 5428 5437 5451 5451 5456 5460 5468 5470 5473 5477 5480 5483 5484 5487 5488 5489 5489
5413 5404 5396 5388 5381 5378 5379 5380 5379 5379 5380 5383 5378 5378 5379 5380 5382 5383 5385 5386 5388 5389 5390 5394 5404 5412 5413 5417 5427 5430 5439 5446 5451 5456 5459 5463 5467 5469 5470 5472 5474 5475 5476 5477
5417 5408 5398 5390 5384 5378 5373 5370 5371 5372 5375 5377 5377 5378 5379 5380 5381 5383 5383 5383 5382 5381 5381 5386 5393 5398 5402 5405 5417 5425 5432 5437 5442 5447 5449 5453 5457 5459 5458 5461 5462 5463 5465 5467
5420 5412 5403 5395 5388 5383 5378 5375 5373 5375 5379 5377 5376 5376 5376 5378 5380 5379 5377 5376 5373 5374 5374 5380 5385 5387 5390 5400 5412 5416 5423 5427 5431 5434 5438 5441 5444 5446 5448 5449 5451 5452 5453 5454
5422 5413 5406 5400 5394 5387 5382 5379 5378 5379 5379 5378 5377 5377 5376 5377 5375 5374 5371 5369 5368 5368 5371 5373 5373 5375 5382 5394 5399 5403 5410 5415 5419 5422 5428 5428 5430 5434 5437 5440 5439 5440 5441 5442
5425 5415 5407 5402 5397 5392 5387 5383 5381 5380 5379 5377 5376 5376 5375 5375 5373 5370 5368 5366 5365 5365 5365 5364 5363 5366 5377 5384 5387 5392 5398 5402 5407 5412 5415 5420 5422 5423 5425 5427 5427 5427 5428 5428
5426 5418 5411 5406 5400 5394 5389 5385 5383 5380 5378 5377 5374 5372 5371 5371 5369 5366 5364 5363 5362 5361 5360 5359 5361 5367 5374 5379 5382 5384 5387 5391 5395 5399 5403 5406 5409 5411 5413 5414 5415 5415 5416 5416
5427 5422 5416 5409 5404 5397 5391 5386 5383 5379 5376 5374 5372 5370 5368 5365 5364 5363 5361 5360 5360 5359 5358 5356 5359 5364 5367 5371 5373 5375 5378 5381 5385 5390 5393 5395 5398 5400 5401 5402 5404 5404 5404 5404
5427 5422 5418 5412 5407 5402 5396 5389 5383 5380 5376 5373 5370 5366 5365 5363 5360 5358 5360 5359 5358 5356 5355 5355 5356 5358 5361 5364 5366 5366 5369 5370 5374 5378 5380 5383 5386 5388 5389 5390 5391 5392 5393 5393
5427 5422 5417 5413 5409 5404 5399 5394 5389 5383 5378 5374 5370 5367 5364 5361 5360 5359 5359 5358 5356 5355 5354 5353 5354 5355 5354 5357 5360 5362 5362 5363 5365 5367 5369 5372 5374 5376 5378 5379 5380 5381 5382 5383
5425 5421 5416 5412 5409 5405 5401 5397 5393 5388 5383 5377 5372 5368 5364 5362 5359 5358 5358 5358 5357 5356 5354 5355 5356 5357 5355 5355 5357 5358 5359 5360 5361 5363 5364 5366 5367 5368 5369 5371 5372 5373 5373 5374
5420 5417 5414 5410 5406 5403 5399 5395 5392 5389 5386 5382 5378 5374 5369 5366 5364 5361 5360 5359 5359 5358 5357 5358 5358 5359 5359 5359 5359 5359 5360 5360 5361 5361 5361 5362 5363 5364 5365 5365 5366 5366 5365 5366
Wind_Speed
70 59 53 51 52 51 49 46 40 36 38 36 39 52 83 77 78 74 74 72 66 65 59 65 64 63 63 60 55 53 51 53 55 50 49 49 51 48 45 46 48 52 51 56
66 58 52 50 51 52 50 46 42 35 35 32 31 46 42 75 79 77 72 72 71 59 63 59 67 67 62 61 56 55 53 58 57 57 57 55 52 47 42 43 51 58 55 56
60 51 48 49 49 50 48 47 43 32 34 28 22 45 51 47 78 81 75 63 76 66 58 67 61 60 68 63 63 60 58 60 62 62 57 52 52 49 48 49 58 51 57 48
52 46 44 44 44 44 47 41 42 38 32 30 34 32 40 51 49 77 78 76 71 72 65 59 64 63 57 68 62 63 63 64 63 63 61 60 58 55 55 57 54 59 50 51
46 40 41 43 42 43 44 39 40 40 33 34 30 44 46 49 47 54 55 77 77 73 77 54 58 52 66 57 69 65 64 66 66 67 65 65 64 63 63 63 58 56 58 55
43 39 40 40 40 41 41 38 38 41 34 35 35 48 45 43 46 49 43 57 76 75 70 74 55 57 62 67 58 54 74 67 68 70 67 68 73 72 66 63 59 56 61 52
44 41 40 39 36 35 42 37 39 37 34 37 39 38 48 53 45 57 58 47 54 64 62 70 73 64 54 69 69 50 40 65 70 72 71 76 74 69 65 65 62 57 56 53
46 44 40 39 36 33 40 38 37 40 31 33 36 39 37 52 63 62 58 47 50 58 61 64 67 71 75 57 66 62 53 42 51 68 80 80 76 69 66 65 58 57 55 55
46 40 38 38 35 33 35 37 37 36 38 25 33 39 39 38 53 53 65 61 48 44 50 54 58 65 64 67 68 66 64 60 55 54 59 65 62 64 68 66 66 56 52 51
40 35 35 32 35 30 32 36 34 36 42 30 29 31 38 39 40 50 57 65 58 49 44 51 44 51 60 60 58 58 56 55 58 54 49 53 58 60 61 62 57 52 53 51
32 32 24 29 31 27 30 31 30 32 36 26 28 27 31 36 38 37 42 61 63 64 48 41 43 47 47 54 57 55 55 52 51 50 53 47 46 48 50 50 52 55 50 45
29 30 26 30 30 26 27 26 26 25 31 25 25 25 26 29 32 40 41 49 55 62 58 45 36 40 42 40 48 52 53 47 45 46 51 47 43 42 45 46 49 47 50 50
29 29 28 26 25 23 24 22 22 23 26 29 25 23 27 26 31 38 40 38 43 52 65 67 41 44 44 47 34 37 43 46 50 44 37 41 38 39 41 42 45 49 46 47
30 28 25 26 24 23 22 20 20 24 28 39 24 27 22 26 31 34 37 34 41 45 49 64 65 42 39 37 40 42 38 39 43 39 36 40 37 39 42 42 37 43 48 45
44 30 24 19 22 27 25 24 30 21 33 33 9 1 8 22 25 24 34 35 40 41 44 47 66 54 44 40 39 35 38 34 39 35 35 37 35 34 36 39 37 36 36 38
44 40 36 20 24 25 25 25 29 28 29 31 12 2 4 16 13 15 17 29 36 42 44 42 47 62 56 54 42 34 34 35 37 37 37 36 37 37 36 37 38 39 37 36
39 41 39 34 31 22 29 31 32 33 36 24 6 9 2 14 10 10 13 19 24 34 42 45 32 55 57 55 50 37 37 40 39 36 36 35 35 36 39 38 39 41 42 41
40 38 39 35 32 30 20 12 18 20 11 8 11 11 5 8 16 20 19 20 27 28 27 38 33 40 54 59 35 42 43 45 43 41 40 35 35 45 39 37 37 38 39 40
35 37 38 36 30 24 17 14 10 6 8 9 8 17 13 4 10 12 18 16 29 27 23 22 25 31 40 47 28 36 46 47 42 38 39 36 36 41 38 39 38 38 37 41
37 34 31 28 29 26 23 10 1 7 14 10 15 18 16 19 23 18 27 15 13 22 24 22 30 35 44 45 21 22 38 45 40 37 39 33 30 29 27 37 42 35 34 36
31 37 26 23 24 24 22 17 11 11 11 15 19 22 23 23 22 27 25 14 11 12 20 27 32 25 44 41 24 21 35 40 39 38 35 39 42 38 40 37 30 33 36 35
36 35 32 29 29 29 25 19 16 16 15 12 15 21 24 21 21 27 14 12 8 11 15 18 28 23 31 32 29 25 30 34 33 37 37 38 39 41 44 44 38 35 39 38
30 31 28 29 35 36 36 28 19 17 15 16 15 16 17 21 21 24 11 7 9 13 13 14 30 32 25 28 31 28 36 39 39 48 46 39 42 44 39 38 41 41 35 31
27 27 24 27 29 29 32 32 27 20 17 15 15 15 13 12 8 7 8 10 11 13 13 13 22 31 31 22 23 24 26 27 36 44 44 43 42 40 37 33 30 29 30 31
29 27 24 23 25 28 29 28 31 25 19 17 15 17 19 17 11 5 7 10 12 12 13 13 15 13 16 17 20 22 18 16 16 17 19 21 22 23 23 24 26 28 29 30
33 26 24 24 23 25 25 23 25 25 26 23 19 16 17 15 11 7 7 9 11 9 6 4 7 8 8 10 11 11 10 12 13 15 16 19 20 22 24 25 27 28 29 30
26 25 22 20 22 24 24 24 23 22 20 19 20 20 20 19 18 14 15 15 17 18 16 14 12 10 9 8 8 8 9 10 11 12 14 16 18 20 22 24 26 27 30 32
Wind_Direction
312 306 299 293 289 286 284 280 277 278 272 270 238 243 235 243 242 240 238 238 244 242 243 249 237 241 242 241 238 238 241 244 245 245 244 243 243 245 249 257 268 268 271 271
313 308 301 296 290 286 282 278 277 274 276 279 237 221 235 237 234 239 241 243 234 245 228 240 251 237 238 240 235 233 235 242 247 245 243 243 246 249 252 260 261 262 267 272
314 309 304 300 296 291 285 283 277 269 268 279 222 226 222 232 230 234 236 237 237 236 249 240 242 247 240 237 238 237 236 237 243 249 250 246 246 245 251 255 256 263 264 271
315 310 305 302 300 298 295 284 278 274 258 265 226 218 222 220 231 232 235 234 239 235 240 239 234 246 250 238 239 237 236 238 240 244 249 249 247 247 250 257 261 260 265 268
313 309 307 303 300 297 294 295 275 267 261 250 237 222 225 214 219 226 231 237 235 236 236 241 235 237 245 244 239 236 240 239 239 241 244 247 249 251 252 256 261 270 269 269
310 307 306 302 297 292 289 290 286 269 254 246 243 227 226 210 214 215 223 231 236 237 236 235 235 235 236 243 244 246 236 237 241 241 241 244 249 254 256 261 264 271 270 274
305 301 299 297 290 285 286 286 284 280 262 249 242 241 235 228 224 224 223 228 233 236 238 236 231 239 241 248 247 247 242 243 240 246 247 247 250 255 260 262 266 270 269 268
298 295 292 293 284 275 284 287 284 284 277 256 245 244 242 229 233 228 219 223 228 231 234 241 240 239 238 243 249 247 246 239 243 248 245 252 254 258 264 267 269 271 271 271
297 294 291 286 285 276 280 282 287 284 270 267 253 242 246 243 234 225 226 223 225 221 227 232 242 242 243 244 246 252 254 254 261 264 260 257 261 263 265 268 268 275 272 268
298 291 289 287 286 277 277 280 283 281 275 274 266 253 245 245 242 239 225 225 226 224 226 230 234 242 242 246 249 248 253 258 263 263 268 265 262 265 266 266 272 273 269 267
292 289 286 285 288 278 276 281 277 283 285 280 275 270 260 249 248 244 237 233 227 226 229 230 234 245 246 246 244 249 248 250 257 262 261 268 275 272 273 278 272 268 270 265
287 279 278 276 282 278 282 281 272 283 292 299 290 279 280 260 246 243 240 238 230 228 226 221 226 231 237 245 251 244 244 246 252 258 261 262 272 269 271 269 267 266 264 262
304 293 280 276 275 274 287 276 269 281 296 300 315 296 277 262 247 242 238 240 235 233 222 219 219 215 216 223 224 248 248 245 248 252 259 257 266 269 267 267 265 260 260 258
320 306 295 278 268 271 268 270 276 278 295 300 309 298 264 245 248 249 246 230 237 238 239 230 225 225 215 212 220 223 232 238 242 246 254 254 259 260 262 265 261 251 252 256
10 348 308 283 259 257 259 249 282 260 274 298 297 107 296 258 254 252 247 237 233 236 245 245 233 226 222 216 221 225 235 238 237 240 249 260 256 256 260 256 253 250 254 258
0 10 11 291 269 262 252 257 259 272 273 291 257 345 357 227 226 257 245 240 235 239 245 249 244 227 234 230 225 215 232 243 242 238 244 252 259 264 264 264 260 255 252 254
359 357 354 4 6 280 262 256 255 262 273 284 319 26 9 210 222 245 253 258 261 254 252 248 254 232 238 239 232 228 227 238 242 247 252 258 260 263 266 265 265 263 261 259
360 3 1 355 358 6 8 321 285 279 268 250 281 335 306 257 246 267 308 272 268 249 257 248 243 238 238 240 238 226 225 237 246 252 254 254 245 259 267 267 268 269 270 269
353 353 360 358 5 350 355 15 30 78 352 262 271 347 347 334 271 309 331 289 268 266 254 224 243 241 241 229 226 232 233 241 241 241 252 254 257 266 269 268 266 268 267 266
354 353 350 4 2 4 11 7 337 289 345 289 302 307 329 327 323 325 331 317 297 264 242 237 246 241 228 224 231 227 235 241 241 245 249 260 270 273 271 260 273 266 263 264
356 359 9 4 8 16 12 11 1 340 303 295 299 293 291 310 312 313 324 318 291 287 272 258 244 216 213 230 250 241 234 236 239 241 248 245 258 268 281 277 267 264 270 274
7 9 20 22 23 23 12 356 338 323 319 318 299 293 294 299 304 310 326 311 313 295 286 248 223 219 225 237 250 264 251 251 252 254 251 260 268 268 272 278 270 270 272 271
359 360 5 20 19 18 16 12 4 348 324 311 305 293 296 298 296 302 323 320 297 307 307 286 220 217 241 254 249 268 259 255 248 249 253 252 258 263 266 264 266 267 262 255
357 353 355 12 11 16 22 18 12 6 6 2 355 352 356 347 313 278 279 304 308 309 318 276 233 228 221 237 257 267 260 254 247 247 252 255 257 262 262 257 250 248 247 247
349 344 349 353 356 2 7 13 17 9 357 354 357 348 341 341 337 291 273 279 288 302 303 300 273 247 216 227 249 255 252 249 246 245 244 244 243 241 240 239 239 241 243 245
322 335 333 338 343 347 352 359 6 4 17 20 12 359 345 338 342 320 292 271 272 279 272 255 215 217 182 175 194 193 194 208 211 214 218 222 223 225 228 233 237 242 247 252
323 317 327 333 337 339 336 338 345 352 10 20 28 38 39 47 64 80 103 117 115 117 112 111 115 121 126 135 143 159 175 194 209 220 228 234 238 242 245 249 252 256 259 263